North Myrtle Beach, SC

8:27 PM EST on November 19, 2019 (GMT -0500)
Grand Strand

Weather History for KCRE - August, 2019

Change the Weather History Date:

Monday, August 26, 2019

  Actual Average Record
Temperature  
Mean Temperature 77 °F 78 °F  
Max Temperature 86 °F 86 °F 94 °F (1941)
Min Temperature 67 °F 71 °F 58 °F (1952)
Degree Days  
Heating Degree Days 0 0  
Month to date heating degree days 0 0  
Since 1 June heating degree days 0 0  
Since 1 July heating degree days 0 0  
Cooling Degree Days 12 13  
Month to date cooling degree days 416 367  
Year to date cooling degree days 1708 1412  
Since 1 June cooling degree days 1315 1200  
Growing Degree Days 26 (Base 50)    
Moisture  
Dew Point 64 °F    
Average Humidity 69    
Maximum Humidity 93    
Minimum Humidity 45    
Precipitation  
Precipitation 0.00 in 0.28 in 4.50 in (1958)
Month to date precipitation 8.55 6.17  
Year to date precipitation 31.56 34.11  
Sea Level Pressure  
Sea Level Pressure 30.02 in    
Wind  
Wind Speed 7 mph (NNE)    
Max Wind Speed 16 mph    
Max Gust Speed 20 mph    
Visibility 10 miles    
Events      
T = Trace of Precipitation, MM = Missing Value Source: NWS Daily Summary

Daily Weather History Graph

Daily Weather History Graph

Search for Another Location

Airport or City:

Astronomy

Aug. 26, 2019 Rise Set
Actual Time 6:44 AM EDT 7:48 PM EDT
Civil Twilight 6:18 AM EDT 8:14 PM EDT
Nautical Twilight 5:47 AM EDT 8:44 PM EDT
Astronomical Twilight 5:16 AM EDT 9:16 PM EDT
Moon 2:17 AM EDT (8/26) 4:59 PM EDT (8/26)
Length of Visible Light 13h 55m
Length of Day
13h 04m
Waning Crescent, 19% of the Moon is Illuminated
Aug 26
Waning Crescent
Aug 30
New
Sep 5
First Quarter
Sep 14
Full
Sep 21
Last Quarter

Hourly Weather History & Observations

Time (EDT) Temp. Heat Index Dew Point Humidity Pressure Visibility Wind Dir Wind Speed Gust Speed Precip Events Conditions
12:53 AM 69.1 °F - 61.0 °F 75% 30.05 in 10.0 mi North 6.9 mph - N/A   Mostly Cloudy
1:53 AM 68.0 °F - 62.1 °F 81% 30.04 in 10.0 mi North 6.9 mph - N/A   Mostly Cloudy
2:53 AM 69.1 °F - 63.0 °F 81% 30.02 in 10.0 mi NNE 10.4 mph - N/A   Mostly Cloudy
3:53 AM 70.0 °F - 64.0 °F 81% 30.01 in 10.0 mi NNE 11.5 mph - N/A   Overcast
4:53 AM 69.1 °F - 64.0 °F 84% 30.01 in 10.0 mi NNE 8.1 mph - N/A   Partly Cloudy
5:53 AM 68.0 °F - 64.0 °F 87% 30.02 in 10.0 mi North 10.4 mph - N/A   Scattered Clouds
6:53 AM 66.9 °F - 64.0 °F 90% 30.04 in 10.0 mi North 6.9 mph - N/A   Mostly Cloudy
7:17 AM 66.9 °F - 64.0 °F 90% 30.03 in 10.0 mi NNE 6.9 mph - N/A   Scattered Clouds
7:53 AM 68.0 °F - 64.9 °F 90% 30.05 in 10.0 mi NNE 6.9 mph - N/A   Partly Cloudy
8:53 AM 71.1 °F - 64.9 °F 81% 30.06 in 10.0 mi NNE 10.4 mph - N/A   Mostly Cloudy
9:53 AM 75.9 °F - 64.9 °F 69% 30.06 in 10.0 mi NNE 11.5 mph - N/A   Mostly Cloudy
10:53 AM 78.1 °F - 63.0 °F 60% 30.06 in 10.0 mi NNE 10.4 mph - N/A   Scattered Clouds
11:53 AM 80.1 °F 81.5 °F 63.0 °F 56% 30.06 in 10.0 mi ENE 8.1 mph - N/A   Scattered Clouds
1:53 PM 84.0 °F 84.9 °F 63.0 °F 49% 30.03 in 10.0 mi North 8.1 mph - N/A   Clear
2:53 PM 84.9 °F 86.1 °F 64.0 °F 49% 30.01 in 10.0 mi North - - N/A   Clear
3:53 PM 86.0 °F 86.3 °F 62.1 °F 44% 29.99 in 10.0 mi Calm Calm - N/A   Clear
4:53 PM 84.9 °F 85.4 °F 62.1 °F 46% 29.98 in 10.0 mi North 4.6 mph - N/A   Clear
5:53 PM 84.0 °F 85.4 °F 64.0 °F 51% 29.98 in 10.0 mi NNE 9.2 mph - N/A   Clear
6:53 PM 82.0 °F 83.4 °F 64.0 °F 54% 29.98 in 10.0 mi North 6.9 mph - N/A   Clear
7:53 PM 77.0 °F - 66.9 °F 71% 29.99 in 10.0 mi North 3.5 mph - N/A   Clear
8:53 PM 73.9 °F - 68.0 °F 82% 30.00 in 10.0 mi Calm Calm - N/A   Clear
9:53 PM 73.9 °F - 66.0 °F 76% 30.03 in 10.0 mi North 3.5 mph - N/A   Clear
10:53 PM 73.9 °F - 66.0 °F 76% 30.05 in 10.0 mi NNE 8.1 mph - N/A   Clear
11:53 PM 72.0 °F - 66.0 °F 81% 30.05 in 10.0 mi NNE 5.8 mph - N/A   Clear